Weather History for PASN - March, 2013

Change the Weather History Date:

Monday, March 11, 2013

  Actual Average Record
Temperature  
Mean Temperature 31 °F 25 °F  
Max Temperature 33 °F 29 °F 40 °F (1989)
Min Temperature 29 °F 20 °F -13 °F (1971)
Degree Days  
Heating Degree Days 34 40  
Month to date heating degree days 412 440  
Since 1 July heating degree days 7871 7359  
Cooling Degree Days 0    
Month to date cooling degree days 0  
Year to date cooling degree days 0  
Moisture  
Dew Point 31 °F    
Average Humidity 100    
Maximum Humidity 100    
Minimum Humidity 96    
Precipitation  
Precipitation 0.42 in 0.03 in 0.46 in (1973)
Month to date precipitation 1.78 0.38  
Year to date precipitation 4.63 3.26  
Snow  
Snow 0.00 in 0.30 in 4.60 in (1973)
Month to date snowfall 13.5 2.9  
Since 1 July snowfall 57.0 47.9  
Snow Depth 24.00 in    
Sea Level Pressure  
Sea Level Pressure 30.56 in    
Wind  
Wind Speed 10 mph (SSE)    
Max Wind Speed 13 mph    
Max Gust Speed 15 mph    
Visibility 5 miles    
Events Rain    
T = Trace of Precipitation, MM = Missing Value Source: NWS Daily Summary

Daily Weather History Graph

Daily Weather History Graph

Search for Another Location

Airport or City:

Trip Planner

Search our weather history database for the weather conditions in past years. The results will help you decide how hot, cold, wet, or windy it might be!

Date:

Astronomy

Mar. 11, 2013 Rise Set
Actual Time 9:45 AM AKDT 9:16 PM AKDT
Civil Twilight 9:07 AM AKDT 9:54 PM AKDT
Nautical Twilight 8:23 AM AKDT 10:39 PM AKDT
Astronomical Twilight 7:36 AM AKDT 11:26 PM AKDT
Moon 9:19 AM AKDT (3/11) 9:57 PM AKDT (3/11)
Length of Visible Light 12h 46m
Length of Day
11h 30m
New Moon, 0% of the Moon is Illuminated
Mar 11
New Moon
Mar 19
First Quarter
Mar 27
Full
Apr 2
Last Quarter
Apr 10
New

Hourly Weather History & Observations

Time (AKDT) Temp. Windchill Dew Point Humidity Pressure Visibility Wind Dir Wind Speed Gust Speed Precip Events Conditions
12:53 AM 28.9 °F 20.4 °F 28.9 °F 100% 30.59 in 10.0 mi South 9.2 mph - N/A   Clear
1:53 AM 28.9 °F 19.8 °F 28.9 °F 100% 30.60 in 10.0 mi South 10.4 mph - N/A   Clear
2:53 AM 28.9 °F 19.8 °F 28.0 °F 96% 30.59 in 10.0 mi SSE 10.4 mph - N/A   Clear
3:53 AM 28.9 °F 19.8 °F 28.0 °F 96% 30.59 in 10.0 mi SSE 10.4 mph - N/A   Clear
4:53 AM 28.9 °F 19.8 °F 28.0 °F 96% 30.58 in 10.0 mi SSE 10.4 mph - N/A   Clear
5:53 AM 28.9 °F 19.8 °F 28.9 °F 100% 30.58 in 10.0 mi South 10.4 mph - N/A   Clear
6:53 AM 28.9 °F 21.1 °F 28.9 °F 100% 30.58 in 10.0 mi South 8.1 mph - N/A   Partly Cloudy
7:53 AM 30.0 °F 22.4 °F 30.0 °F 100% 30.58 in 10.0 mi South 8.1 mph - N/A   Clear
8:49 AM 30.2 °F 21.9 °F 30.2 °F 100% 30.58 in 9.0 mi South 9.2 mph - N/A   Mostly Cloudy
8:53 AM 30.9 °F 22.2 °F 30.9 °F 100% 30.58 in 9.0 mi South 10.4 mph - N/A   Mostly Cloudy
9:23 AM 30.2 °F 22.6 °F 30.2 °F 100% 30.57 in 8.0 mi South 8.1 mph - N/A   Partly Cloudy
9:53 AM 30.9 °F 23.5 °F 30.9 °F 100% 30.58 in 8.0 mi South 8.1 mph - N/A   Mostly Cloudy
10:53 AM 30.9 °F 22.8 °F 30.9 °F 100% 30.58 in 6.0 mi South 9.2 mph - N/A   Overcast
11:53 AM 32.0 °F 23.6 °F 32.0 °F 100% 30.58 in 5.0 mi SSE 10.4 mph - 0.00 in Rain Light Rain
12:34 PM 32.0 °F 24.2 °F 32.0 °F 100% 30.58 in 5.0 mi SSE 9.2 mph - 0.00 in   Overcast
12:50 PM 32.0 °F 24.8 °F 32.0 °F 100% 30.58 in 5.0 mi SSE 8.1 mph - 0.00 in   Overcast
12:53 PM 32.0 °F 24.8 °F 32.0 °F 100% 30.58 in 5.0 mi SSE 8.1 mph - 0.00 in Rain Light Rain
1:28 PM 32.0 °F 24.2 °F 32.0 °F 100% 30.58 in 5.0 mi SSE 9.2 mph - 0.00 in Rain Light Rain
1:36 PM 32.0 °F 24.2 °F 32.0 °F 100% 30.57 in 4.0 mi SSE 9.2 mph - 0.00 in   Overcast
1:53 PM 32.0 °F 24.2 °F 32.0 °F 100% 30.58 in 4.0 mi SSE 9.2 mph - 0.00 in Rain Light Rain
2:24 PM 32.0 °F 23.0 °F 32.0 °F 100% 30.57 in 3.0 mi SSE 11.5 mph - 0.01 in   Overcast
2:53 PM 32.0 °F 23.6 °F 32.0 °F 100% 30.58 in 4.0 mi South 10.4 mph - 0.01 in Rain Light Rain
3:53 PM 32.0 °F 24.2 °F 32.0 °F 100% 30.57 in 3.0 mi SSE 9.2 mph - 0.00 in Rain Light Rain
4:50 PM 33.8 °F 25.8 °F 33.8 °F 100% 30.56 in 2.5 mi South 10.4 mph - 0.04 in Rain Light Rain
4:53 PM 33.1 °F 24.9 °F 33.1 °F 100% 30.56 in 2.5 mi SSE 10.4 mph - 0.04 in Rain Light Rain
5:53 PM 33.1 °F 24.4 °F 33.1 °F 100% 30.56 in 2.5 mi SSE 11.5 mph - 0.06 in Rain Light Rain
6:07 PM 33.8 °F 25.8 °F 33.8 °F 100% 30.55 in 3.0 mi South 10.4 mph - 0.01 in Rain Light Rain
6:16 PM 33.8 °F 25.8 °F 33.8 °F 100% 30.55 in 2.5 mi South 10.4 mph - 0.02 in Rain Light Rain
6:51 PM 32.0 °F 24.2 °F 32.0 °F 100% 30.54 in 1.5 mi SSE 9.2 mph - 0.04 in Rain Light Rain
6:53 PM 33.1 °F 24.9 °F 33.1 °F 100% 30.55 in 1.5 mi SSE 10.4 mph - 0.05 in Rain Light Rain
7:11 PM 33.8 °F 25.8 °F 33.8 °F 100% 30.54 in 2.0 mi SSE 10.4 mph - 0.01 in Rain Light Rain
7:53 PM 32.0 °F 24.2 °F 32.0 °F 100% 30.54 in 2.5 mi SSE 9.2 mph - 0.05 in   Overcast
8:53 PM 32.0 °F 23.6 °F 32.0 °F 100% 30.53 in 2.5 mi SSE 10.4 mph - 0.05 in   Overcast
9:05 PM 32.0 °F 23.6 °F 32.0 °F 100% 30.53 in 3.0 mi SSE 10.4 mph - 0.02 in   Overcast
9:38 PM 32.0 °F 23.6 °F 32.0 °F 100% 30.52 in 4.0 mi South 10.4 mph - 0.04 in   Overcast
9:53 PM 32.0 °F 23.6 °F 32.0 °F 100% 30.53 in 4.0 mi South 10.4 mph - 0.05 in   Overcast
10:22 PM 32.0 °F 24.2 °F 32.0 °F 100% 30.52 in 5.0 mi South 9.2 mph - 0.02 in   Overcast
10:53 PM 32.0 °F 24.2 °F 32.0 °F 100% 30.53 in 4.0 mi South 9.2 mph - 0.04 in   Overcast
11:53 PM 32.0 °F 23.6 °F 32.0 °F 100% 30.51 in 4.0 mi South 10.4 mph - 0.04 in   Overcast